Time,TemperatureF,DewpointF,PressureIn,WindDirection,WindDirectionDegrees,WindSpeedMPH,WindSpeedGustMPH,Humidity,HourlyPrecipIn,Conditions,Clouds,dailyrainin,SoftwareType,DateUTC
2013-10-22 00:13:00,30.0,26.0,30.00,WNW,302,0.0,0.0,85,0.00,,,0.01,,2013-10-22 05:13:00,
2013-10-22 00:22:00,30.0,26.0,30.00,WNW,302,0.0,0.0,85,0.00,,,0.01,,2013-10-22 05:22:00,
2013-10-22 00:43:00,31.0,29.0,30.00,WNW,302,0.0,0.0,91,0.00,,,0.01,,2013-10-22 05:43:00,
2013-10-22 00:52:00,31.0,28.0,29.99,WNW,302,0.0,0.0,89,0.00,,,0.01,,2013-10-22 05:52:00,
2013-10-22 01:12:00,30.0,27.0,30.00,WNW,302,0.0,0.0,87,0.00,,,0.01,,2013-10-22 06:12:00,
2013-10-22 01:22:00,30.0,27.0,30.00,WNW,302,0.0,0.0,87,0.00,,,0.01,,2013-10-22 06:22:00,
2013-10-22 01:42:00,30.0,27.0,30.00,WNW,302,0.0,1.0,89,0.00,,,0.01,,2013-10-22 06:42:00,
2013-10-22 01:53:00,30.0,27.0,30.00,WNW,302,0.0,1.0,89,0.00,,,0.01,,2013-10-22 06:53:00,
2013-10-22 02:12:00,30.0,27.0,30.00,WNW,302,0.0,1.0,88,0.00,,,0.01,,2013-10-22 07:12:00,
2013-10-22 02:22:00,29.0,26.0,30.01,WNW,302,0.0,0.0,87,0.00,,,0.01,,2013-10-22 07:22:00,
2013-10-22 02:42:00,30.0,27.0,30.01,WNW,302,0.0,1.0,88,0.00,,,0.01,,2013-10-22 07:42:00,
2013-10-22 02:52:00,29.0,26.0,30.01,WNW,302,0.0,0.0,88,0.00,,,0.01,,2013-10-22 07:52:00,
2013-10-22 03:12:00,29.0,26.0,30.01,WNW,302,0.0,1.0,88,0.00,,,0.01,,2013-10-22 08:12:00,
2013-10-22 03:22:00,29.0,26.0,30.01,WNW,302,0.0,0.0,87,0.00,,,0.01,,2013-10-22 08:22:00,
2013-10-22 03:42:00,29.0,26.0,30.01,WNW,302,0.0,1.0,87,0.00,,,0.00,,2013-10-22 08:42:00,
2013-10-22 03:52:00,29.0,26.0,30.00,WNW,302,0.0,1.0,87,0.00,,,0.00,,2013-10-22 08:52:00,
2013-10-22 04:11:00,29.0,26.0,30.01,WNW,302,0.0,0.0,89,0.00,,,0.00,,2013-10-22 09:11:00,
2013-10-22 04:22:00,29.0,25.0,30.00,WNW,302,0.0,0.0,86,0.00,,,0.00,,2013-10-22 09:22:00,
2013-10-22 04:43:00,28.0,25.0,30.00,WNW,302,0.0,1.0,88,0.00,,,0.00,,2013-10-22 09:43:00,
2013-10-22 04:53:00,28.0,25.0,30.01,WNW,302,0.0,1.0,89,0.00,,,0.00,,2013-10-22 09:53:00,
2013-10-22 05:13:00,28.0,25.0,30.01,WNW,302,0.0,0.0,89,0.00,,,0.00,,2013-10-22 10:13:00,
2013-10-22 05:23:00,29.0,26.0,30.01,WNW,302,0.0,0.0,90,0.00,,,0.00,,2013-10-22 10:23:00,
2013-10-22 05:43:00,29.0,27.0,30.01,WNW,302,0.0,0.0,91,0.00,,,0.00,,2013-10-22 10:43:00,
2013-10-22 05:53:00,29.0,27.0,30.01,WNW,302,0.0,1.0,93,0.00,,,0.00,,2013-10-22 10:53:00,
2013-10-22 06:12:00,29.0,27.0,30.01,WNW,302,0.0,0.0,92,0.00,,,0.00,,2013-10-22 11:12:00,
2013-10-22 06:22:00,28.0,26.0,30.00,WNW,302,0.0,1.0,91,0.00,,,0.00,,2013-10-22 11:22:00,
2013-10-22 06:42:00,28.0,26.0,30.01,WNW,302,0.0,0.0,91,0.00,,,0.00,,2013-10-22 11:42:00,
2013-10-22 06:52:00,28.0,25.0,30.01,WNW,302,0.0,0.0,90,0.00,,,0.00,,2013-10-22 11:52:00,
2013-10-22 07:11:00,29.0,27.0,30.01,WNW,302,0.0,1.0,92,0.00,,,0.00,,2013-10-22 12:11:00,
2013-10-22 07:22:00,29.0,27.0,30.00,WNW,302,0.0,1.0,91,0.00,,,0.00,,2013-10-22 12:22:00,
2013-10-22 07:42:00,28.0,26.0,30.00,WNW,302,0.0,1.0,91,0.00,,,0.00,,2013-10-22 12:42:00,
2013-10-22 07:52:00,29.0,27.0,30.01,WNW,302,0.0,1.0,91,0.00,,,0.00,,2013-10-22 12:52:00,
2013-10-22 08:12:00,31.0,30.0,30.00,WNW,302,0.0,1.0,95,0.00,,,0.00,,2013-10-22 13:12:00,
2013-10-22 08:21:00,31.0,28.0,30.00,WNW,302,0.0,2.0,89,0.00,,,0.00,,2013-10-22 13:21:00,
2013-10-22 08:42:00,31.0,29.0,30.00,South,182,0.0,2.0,91,0.00,,,0.00,,2013-10-22 13:42:00,
2013-10-22 08:53:00,32.0,29.0,30.00,South,182,0.0,1.0,87,0.00,,,0.00,,2013-10-22 13:53:00,
2013-10-22 09:12:00,33.0,30.0,30.00,South,182,0.0,0.0,88,0.00,,,0.00,,2013-10-22 14:12:00,
2013-10-22 09:21:00,33.0,29.0,30.00,South,182,0.0,1.0,85,0.00,,,0.00,,2013-10-22 14:21:00,
2013-10-22 09:42:00,35.0,32.0,30.00,South,182,0.0,1.0,90,0.00,,,0.00,,2013-10-22 14:42:00,
2013-10-22 09:52:00,35.0,30.0,30.00,South,182,0.0,2.0,82,0.00,,,0.00,,2013-10-22 14:52:00,
2013-10-22 10:12:00,36.0,32.0,29.99,South,182,0.0,1.0,86,0.00,,,0.00,,2013-10-22 15:12:00,
2013-10-22 10:22:00,38.0,34.0,29.98,South,182,0.0,1.0,86,0.00,,,0.00,,2013-10-22 15:22:00,
2013-10-22 10:43:00,39.0,34.0,29.98,East,80,0.0,2.0,83,0.00,,,0.00,,2013-10-22 15:43:00,
2013-10-22 10:54:00,41.0,33.0,29.98,SE,140,1.0,3.0,74,0.00,,,0.00,,2013-10-22 15:54:00,
2013-10-22 11:13:00,41.0,33.0,29.97,SE,127,0.0,4.0,72,0.00,,,0.00,,2013-10-22 16:13:00,
2013-10-22 11:23:00,42.0,34.0,29.97,SE,126,0.0,2.0,74,0.00,,,0.00,,2013-10-22 16:23:00,
2013-10-22 11:43:00,42.0,33.0,29.96,SE,127,0.0,3.0,71,0.00,,,0.00,,2013-10-22 16:43:00,
2013-10-22 11:53:00,42.0,34.0,29.96,SE,126,1.0,2.0,73,0.00,,,0.00,,2013-10-22 16:53:00,
2013-10-22 12:12:00,41.0,35.0,29.96,NNE,17,1.0,4.0,78,0.00,,,0.00,,2013-10-22 17:12:00,
2013-10-22 12:22:00,41.0,36.0,29.97,SSW,207,0.0,4.0,82,0.02,,,0.02,,2013-10-22 17:22:00,
2013-10-22 12:43:00,40.0,35.0,29.96,WNW,292,0.0,5.0,83,0.05,,,0.05,,2013-10-22 17:43:00,
2013-10-22 12:52:00,40.0,37.0,29.96,West,277,0.0,1.0,88,0.08,,,0.08,,2013-10-22 17:52:00,
2013-10-22 13:12:00,39.0,36.0,29.95,West,277,0.0,0.0,89,0.09,,,0.10,,2013-10-22 18:12:00,
2013-10-22 13:22:00,39.0,37.0,29.95,West,277,0.0,2.0,92,0.11,,,0.13,,2013-10-22 18:22:00,
2013-10-22 13:42:00,38.0,35.0,29.94,SSW,196,0.0,5.0,89,0.12,,,0.17,,2013-10-22 18:42:00,
2013-10-22 13:52:00,38.0,36.0,29.93,SE,136,1.0,4.0,91,0.13,,,0.21,,2013-10-22 18:52:00,
2013-10-22 14:12:00,38.0,36.0,29.93,East,84,1.0,5.0,91,0.14,,,0.24,,2013-10-22 19:12:00,
2013-10-22 14:22:00,37.0,35.0,29.92,East,92,1.0,8.0,92,0.14,,,0.27,,2013-10-22 19:22:00,
2013-10-22 14:42:00,36.0,34.0,29.91,ENE,73,0.0,3.0,93,0.12,,,0.28,,2013-10-22 19:42:00,
2013-10-22 14:52:00,36.0,34.0,29.90,ENE,70,1.0,7.0,93,0.08,,,0.28,,2013-10-22 19:52:00,
2013-10-22 15:11:00,36.0,34.0,29.90,ENE,72,2.0,9.0,94,0.06,,,0.30,,2013-10-22 20:11:00,
2013-10-22 15:22:00,36.0,35.0,29.90,North,5,1.0,8.0,95,0.03,,,0.30,,2013-10-22 20:22:00,
2013-10-22 15:43:00,36.0,35.0,29.90,East,89,3.0,7.0,95,0.02,,,0.31,,2013-10-22 20:43:00,
2013-10-22 15:52:00,37.0,36.0,29.90,SE,144,1.0,3.0,95,0.02,,,0.31,,2013-10-22 20:52:00,
2013-10-22 16:12:00,37.0,36.0,29.90,ENE,77,0.0,5.0,95,0.01,,,0.31,,2013-10-22 21:12:00,
2013-10-22 16:23:00,37.0,36.0,29.90,ENE,71,1.0,7.0,95,0.03,,,0.33,,2013-10-22 21:23:00,
2013-10-22 16:44:00,37.0,36.0,29.90,SE,134,2.0,6.0,95,0.03,,,0.34,,2013-10-22 21:44:00,
2013-10-22 16:54:00,37.0,36.0,29.90,ESE,111,1.0,9.0,95,0.04,,,0.35,,2013-10-22 21:54:00,
2013-10-22 17:14:00,37.0,36.0,29.91,ESE,118,1.0,9.0,95,0.05,,,0.36,,2013-10-22 22:14:00,
2013-10-22 17:24:00,37.0,36.0,29.91,ESE,121,1.0,8.0,95,0.04,,,0.37,,2013-10-22 22:24:00,
2013-10-22 17:44:00,37.0,35.0,29.91,NE,40,2.0,5.0,94,0.04,,,0.38,,2013-10-22 22:44:00,
2013-10-22 17:54:00,37.0,36.0,29.91,ESE,102,1.0,6.0,95,0.04,,,0.39,,2013-10-22 22:54:00,
2013-10-22 18:12:00,37.0,35.0,29.91,ENE,76,1.0,7.0,94,0.05,,,0.41,,2013-10-22 23:12:00,
2013-10-22 18:23:00,37.0,36.0,29.91,NE,40,3.0,10.0,95,0.05,,,0.42,,2013-10-22 23:23:00,
2013-10-22 18:43:00,36.0,34.0,29.91,NE,36,2.0,6.0,94,0.05,,,0.43,,2013-10-22 23:43:00,
2013-10-22 18:53:00,37.0,36.0,29.92,NE,34,1.0,6.0,95,0.04,,,0.43,,2013-10-22 23:53:00,
2013-10-22 19:11:00,36.0,35.0,29.92,NE,46,2.0,5.0,95,0.04,,,0.45,,2013-10-23 00:11:00,
2013-10-22 19:22:00,36.0,35.0,29.93,NNE,32,1.0,6.0,95,0.04,,,0.46,,2013-10-23 00:22:00,
2013-10-22 19:42:00,36.0,35.0,29.93,North,351,2.0,6.0,95,0.04,,,0.47,,2013-10-23 00:42:00,
2013-10-22 19:52:00,36.0,35.0,29.93,NE,49,3.0,7.0,95,0.05,,,0.48,,2013-10-23 00:52:00,
2013-10-22 20:11:00,36.0,35.0,29.94,NNE,20,2.0,6.0,95,0.03,,,0.48,,2013-10-23 01:11:00,
2013-10-22 20:23:00,36.0,35.0,29.94,North,360,2.0,5.0,95,0.03,,,0.49,,2013-10-23 01:23:00,
2013-10-22 20:42:00,36.0,35.0,29.94,NNE,15,2.0,5.0,95,0.02,,,0.49,,2013-10-23 01:42:00,
2013-10-22 20:52:00,36.0,35.0,29.95,NNE,24,2.0,6.0,95,0.01,,,0.49,,2013-10-23 01:52:00,
2013-10-22 21:11:00,36.0,35.0,29.94,North,360,1.0,4.0,95,0.01,,,0.49,,2013-10-23 02:11:00,
2013-10-22 21:22:00,36.0,35.0,29.94,NE,39,0.0,3.0,95,0.00,,,0.49,,2013-10-23 02:22:00,
2013-10-22 21:42:00,36.0,35.0,29.95,NNE,24,1.0,4.0,95,0.00,,,0.49,,2013-10-23 02:42:00,
2013-10-22 21:53:00,36.0,35.0,29.95,NNE,26,1.0,6.0,95,0.00,,,0.49,,2013-10-23 02:53:00,
2013-10-22 22:12:00,36.0,35.0,29.96,North,360,1.0,7.0,95,0.00,,,0.49,,2013-10-23 03:12:00,
2013-10-22 22:22:00,36.0,35.0,29.96,NNE,22,2.0,6.0,95,0.00,,,0.49,,2013-10-23 03:22:00,
2013-10-22 22:44:00,37.0,36.0,29.96,NNE,14,0.0,3.0,95,0.00,,,0.49,,2013-10-23 03:44:00,
2013-10-22 22:55:00,37.0,36.0,29.96,NNE,13,0.0,2.0,95,0.00,,,0.49,,2013-10-23 03:55:00,
2013-10-22 23:14:00,36.0,35.0,29.96,NNE,13,1.0,3.0,95,0.00,,,0.49,,2013-10-23 04:14:00,
2013-10-22 23:24:00,36.0,35.0,29.96,NNW,347,0.0,1.0,95,0.00,,,0.49,,2013-10-23 04:24:00,
2013-10-22 23:45:00,36.0,35.0,29.95,NNW,347,0.0,3.0,95,0.00,,,0.49,,2013-10-23 04:45:00,
2013-10-22 23:54:00,36.0,35.0,29.95,NNW,329,0.0,4.0,95,0.00,,,0.49,,2013-10-23 04:54:00,